EW9434 Weather Reports


time (UTC)temp
F
wind
direction
speed
knots
gust
knots
rain 1hr
in
rain 24hr
in
rain mn
in
humidity
%
barometer
mb
20260504020605 58 285 2.6 7.0 0.00 0.00 0.00 49 1012.4
20260504020124 57 285 2.6 7.8 0.00 0.00 0.00 49 1012.9
20260504020040 58 284 2.6 7.8 0.00 0.00 0.00 49 1012.3
20260504015535 58 286 2.6 7.8 0.00 0.00 0.00 48 1012.3
20260504015036 58 285 3.5 7.8 0.00 0.00 0.00 47 1012.2
20260504014542 58 285 1.7 12.2 0.00 0.00 0.00 46 1012.9
20260504014506 58 285 4.3 12.2 0.00 0.00 0.00 46 1012.3
20260504013941 59 285 4.3 12.2 0.00 0.00 0.00 45 1012.2
20260504013414 59 284 5.2 12.2 0.00 0.00 0.00 44 1012.1
20260504013102 58 285 4.3 12.2 0.00 0.00 0.00 44 1012.7
20260504012908 59 284 4.3 12.2 0.00 0.00 0.00 43 1012.0
20260504012339 59 286 3.5 8.7 0.00 0.00 0.00 43 1012.0
20260504011813 59 286 4.3 13.0 0.00 0.00 0.00 42 1011.9
20260504011528 59 285 2.6 13.0 0.00 0.00 0.00 43 1012.6
20260504011245 59 286 3.5 13.0 0.00 0.00 0.00 42 1012.0
20260504010744 59 286 3.5 11.3 0.00 0.00 0.00 42 1012.0
20260504010215 59 285 3.5 11.3 0.00 0.00 0.00 41 1012.0
20260504010049 59 286 4.3 11.3 0.00 0.00 0.00 42 1012.6
20260504005649 59 285 3.5 8.7 0.00 0.00 0.00 41 1011.9
20260504005123 59 286 4.3 9.6 0.00 0.00 0.00 41 1012.0
20260504004556 59 285 4.3 10.4 0.00 0.00 0.00 41 1012.0
20260504004525 59 284 3.5 9.6 0.00 0.00 0.00 41 1012.6
20260504004052 59 286 4.3 10.4 0.00 0.00 0.00 41 1012.1
20260504003549 59 286 4.3 11.3 0.00 0.00 0.00 41 1012.0
20260504003240 59 285 2.6 11.3 0.00 0.00 0.00 41 1012.0
20260504003102 59 286 5.2 11.3 0.00 0.00 0.00 41 1012.6
20260504002457 59 286 2.6 9.6 0.00 0.00 0.00 41 1012.0
20260504001929 60 287 3.5 13.0 0.00 0.00 0.00 41 1012.1
20260504001554 59 286 4.3 13.0 0.00 0.00 0.00 40 1012.7
20260504001405 60 286 4.3 13.0 0.00 0.00 0.00 41 1012.0
20260504000838 60 286 4.3 10.4 0.00 0.00 0.00 40 1011.9
20260504000311 60 287 4.3 10.4 0.00 0.00 0.00 40 1011.8
20260504000021 59 286 3.5 10.4 0.00 0.00 0.00 41 1012.4
20260504000010 60 286 3.5 9.6 0.00 0.00 0.00 40 1011.8
20260503235244 60 288 3.5 9.6 0.00 0.00 0.00 39 1011.8
20260503234713 60 286 4.3 9.6 0.00 0.00 0.00 40 1011.8
20260503234511 60 286 3.5 9.6 0.00 0.00 0.00 39 1012.4
20260503234212 60 286 3.5 9.6 0.00 0.00 0.00 40 1011.7
20260503234132 60 287 3.5 9.6 0.00 0.00 0.00 40 1011.7
20260503233345 60 286 3.5 9.6 0.00 0.00 0.00 40 1011.8
20260503233048 60 286 2.6 9.6 0.00 0.00 0.00 40 1012.5
20260503232551 60 286 3.5 9.6 0.00 0.00 0.00 40 1012.0
20260503232309 60 290 3.5 7.8 0.00 0.00 0.00 40 1012.0
20260503231539 60 288 1.7 7.8 0.00 0.00 0.00 40 1012.8
20260503231521 60 289 3.5 8.7 0.00 0.00 0.00 40 1012.2
20260503231020 60 288 3.5 9.6 0.00 0.00 0.00 39 1012.3
20260503230451 60 289 3.5 9.6 0.00 0.00 0.00 39 1012.4
20260503230040 60 285 3.5 10.4 0.00 0.00 0.00 39 1013.2
20260503225950 60 286 4.3 10.4 0.00 0.00 0.00 39 1012.6
20260503225715 60 286 5.2 10.4 0.00 0.00 0.00 38 1012.7
20260503224944 60 285 4.3 10.4 0.00 0.00 0.00 38 1012.8
20260503224707 60 285 4.3 10.4 0.00 0.00 0.00 39 1012.8
20260503224615 60 286 5.2 10.4 0.00 0.00 0.00 38 1013.5
20260503223943 60 286 4.3 12.2 0.00 0.00 0.00 38 1013.0
20260503223443 60 285 5.2 12.2 0.00 0.00 0.00 38 1013.1
20260503223211 60 286 4.3 11.3 0.00 0.00 0.00 38 1013.2
20260503223023 60 286 6.1 12.2 0.00 0.00 0.00 38 1013.7
20260503222416 60 286 5.2 13.9 0.00 0.00 0.00 39 1013.3
20260503221915 60 286 6.1 13.9 0.00 0.00 0.00 38 1013.3
20260503221537 60 287 6.1 13.9 0.00 0.00 0.00 37 1014.0
20260503221408 61 288 5.2 13.9 0.00 0.00 0.00 38 1013.5
20260503221308 61 91 3.5 10.4 0.00 0.00 0.00 39 1013.4
20260503220937 61 286 4.3 9.6 0.00 0.00 0.00 39 1013.4
20260503220027 61 189 3.5 10.4 0.00 0.00 0.00 40 1014.1
20260503215837 61 300 3.5 10.4 0.00 0.00 0.00 39 1013.5
20260503215310 61 285 3.5 7.8 0.00 0.00 0.00 40 1013.5
20260503214807 61 287 3.5 8.7 0.00 0.00 0.00 38 1013.5
20260503214538 60 288 1.7 8.7 0.00 0.00 0.00 40 1014.2
20260503214244 61 285 3.5 9.6 0.00 0.00 0.00 39 1013.5
20260503213712 60 284 2.6 9.6 0.00 0.00 0.00 37 1013.5
20260503213211 60 288 2.6 9.6 0.00 0.00 0.00 37 1013.5
20260503213055 60 286 2.6 9.6 0.00 0.00 0.00 39 1014.2
20260503212646 60 284 2.6 7.8 0.00 0.00 0.00 38 1013.5
20260503212117 60 287 3.5 7.8 0.00 0.00 0.00 37 1013.6
20260503211615 60 286 4.3 8.7 0.00 0.00 0.00 38 1013.6
20260503211544 60 286 2.6 9.6 0.00 0.00 0.00 38 1014.3
20260503211328 60 286 3.5 13.9 0.00 0.00 0.00 38 1014.0
20260503210602 60 284 2.6 13.9 0.00 0.00 0.00 37 1014.0
20260503210033 59 286 2.6 10.4 0.00 0.00 0.00 39 1014.8
20260503205537 60 286 4.3 10.4 0.00 0.00 0.00 39 1014.4
20260503205035 60 287 3.5 9.6 0.00 0.00 0.00 38 1014.7
20260503204728 60 288 3.5 12.2 0.00 0.00 0.00 38 1014.6
20260503204606 59 286 2.6 8.7 0.00 0.00 0.00 39 1015.3
20260503203939 60 286 4.3 12.2 0.00 0.00 0.00 39 1014.6
20260503203437 60 286 4.3 12.2 0.00 0.00 0.00 38 1014.6
20260503203041 59 286 5.2 12.2 0.00 0.00 0.00 38 1015.1
20260503202911 60 285 4.3 12.2 0.00 0.00 0.00 37 1014.4
20260503202627 60 285 5.2 14.8 0.00 0.00 0.00 37 1014.4
20260503201904 60 286 4.3 14.8 0.00 0.00 0.00 37 1014.5
20260503201551 59 286 1.7 9.6 0.00 0.00 0.00 38 1015.1
20260503201359 60 284 4.3 13.9 0.00 0.00 0.00 39 1014.5
20260503200902 60 287 5.2 13.9 0.00 0.00 0.00 38 1014.6
20260503200837 60 287 5.2 14.8 0.00 0.00 0.00 37 1014.5
20260503200043 60 159 3.5 14.8 0.00 0.00 0.00 37 1015.2
20260503195853 60 79 5.2 14.8 0.00 0.00 0.00 37 1014.4
20260503195348 61 132 5.2 11.3 0.00 0.00 0.00 37 1014.6
20260503195338 61 188 5.2 11.3 0.00 0.00 0.00 37 1014.6
20260503194511 61 118 3.5 12.2 0.00 0.00 0.00 37 1015.4
20260503194321 61 222 5.2 13.0 0.00 0.00 0.00 36 1014.8
20260503193818 62 154 5.2 13.0 0.00 0.00 0.00 38 1015.0
20260503193315 62 104 6.1 13.0 0.00 0.00 0.00 36 1015.2
20260503193040 61 159 5.2 13.0 0.00 0.00 0.00 36 1016.0
20260503192746 62 141 5.2 13.0 0.00 0.00 0.00 37 1015.3
20260503192246 62 209 5.2 15.6 0.00 0.00 0.00 36 1015.3
20260503191718 61 203 4.3 15.6 0.00 0.00 0.00 37 1015.4
20260503191532 60 125 4.3 9.6 0.00 0.00 0.00 38 1016.3
20260503191439 60 74 5.2 13.0 0.00 0.00 0.00 37 1015.4
20260503190711 60 121 5.2 13.9 0.00 0.00 0.00 39 1015.6
20260503190210 60 171 5.2 13.9 0.00 0.00 0.00 38 1015.6
20260503190033 60 211 4.3 13.9 0.00 0.00 0.00 38 1016.3
20260503185643 60 118 4.3 13.9 0.00 0.00 0.00 38 1015.7
20260503185139 60 93 5.2 10.4 0.00 0.00 0.00 43 1015.8
20260503184611 59 107 5.2 13.0 0.00 0.00 0.00 37 1015.9
20260503184519 59 165 4.3 13.0 0.00 0.00 0.00 37 1016.7
20260503184110 59 125 5.2 13.0 0.00 0.00 0.00 38 1016.0
20260503183543 59 76 5.2 13.0 0.00 0.00 0.00 37 1016.2
20260503183055 59 138 4.3 13.0 0.00 0.00 0.00 38 1017.0
20260503183037 60 200 5.2 13.0 0.00 0.00 0.00 38 1016.2
20260503182536 60 161 5.2 13.9 0.00 0.00 0.00 37 1016.1
20260503182034 60 20 6.1 15.6 0.00 0.00 0.00 35 1016.2
20260503181547 60 113 6.1 15.6 0.00 0.00 0.00 36 1017.1
20260503181509 61 131 5.2 14.8 0.00 0.00 0.00 36 1016.3
20260503181004 61 151 4.3 13.0 0.00 0.00 0.00 39 1016.3
20260503180501 60 99 5.2 13.0 0.00 0.00 0.00 38 1016.4
20260503180153 60 84 5.2 14.8 0.00 0.00 0.00 36 1016.5
20260503175433 60 75 5.2 14.8 0.00 0.00 0.00 37 1016.5
20260503174906 60 123 5.2 13.0 0.00 0.00 0.00 38 1016.6
20260503174506 59 187 7.0 13.9 0.00 0.00 0.00 38 1017.3
20260503174339 60 126 5.2 13.9 0.00 0.00 0.00 38 1016.5
20260503174100 60 137 5.2 13.9 0.00 0.00 0.00 37 1016.7
20260503173312 60 165 5.2 13.9 0.00 0.00 0.00 38 1016.8
20260503173002 59 90 5.2 12.2 0.00 0.00 0.00 37 1017.7
20260503172813 60 63 5.2 13.9 0.00 0.00 0.00 38 1016.8
20260503172249 60 60 5.2 13.9 0.00 0.00 0.00 38 1017.0
20260503171723 59 167 6.1 13.9 0.00 0.00 0.00 42 1017.2
20260503171541 58 132 6.1 13.9 0.00 0.00 0.00 36 1017.9
20260503171412 59 216 5.2 11.3 0.00 0.00 0.00 37 1017.3
20260503170651 59 91 6.1 13.0 0.00 0.00 0.00 38 1017.5
20260503170148 59 145 6.1 14.8 0.00 0.00 0.00 40 1017.5
20260503150923 55 112 4.3 11.3 0.00 0.00 0.00 50 1018.8
20260503150622 54 193 5.2 13.0 0.00 0.00 0.00 47 1018.8
20260503150124 54 210 5.2 13.0 0.00 0.00 0.00 46 1018.8
20260503131329 46 135 2.6 7.0 0.00 0.00 0.00 67 1018.8
20260503131052 45 273 1.7 4.3 0.00 0.00 0.00 73 1018.8
20260503130547 45 273 2.6 4.3 0.00 0.00 0.00 73 1018.8
20260503110754 38 305 0.0 2.6 0.00 0.00 0.00 82 1018.3
20260503110252 38 301 0.9 2.6 0.00 0.00 0.00 82 1018.2
20260503100109 37 306 0.0 1.7 0.00 0.00 0.00 86 1018.5
20260503090148 38 286 0.0 2.6 0.00 0.00 0.00 84 1017.7
20260503081539 38 284 0.0 2.6 0.00 0.00 0.00 83 1018.4
20260503081515 38 284 0.0 2.6 0.00 0.00 0.00 83 1017.6
20260503081256 38 284 0.9 1.7 0.00 0.00 0.00 83 1017.6
20260503080450 38 284 0.9 2.6 0.00 0.00 0.00 83 1017.5
20260503072734 38 284 0.0 0.9 0.00 0.00 0.00 84 1017.5
20260503072227 38 284 0.0 0.9 0.00 0.00 0.00 84 1017.5
20260503071725 38 284 0.0 0.9 0.00 0.00 0.00 84 1017.5
20260503071603 37 284 0.0 0.9 0.00 0.00 0.00 84 1018.3
20260503071159 38 284 0.0 0.9 0.00 0.00 0.00 84 1017.5
20260503070629 38 284 0.0 0.9 0.00 0.00 0.00 83 1017.6
20260503070345 38 284 0.0 0.9 0.00 0.00 0.00 83 1017.6
20260503060109 39 284 0.0 0.9 0.00 0.00 0.00 78 1018.6
20260503054802 40 284 0.0 0.9 0.00 0.00 0.00 77 1017.9
20260503054557 40 284 0.0 0.9 0.00 0.00 0.00 76 1018.7
20260503054238 40 284 0.0 1.7 0.00 0.00 0.00 76 1017.9
20260503053711 41 284 0.0 1.7 0.00 0.00 0.00 75 1017.9
20260503053204 41 284 0.0 1.7 0.00 0.00 0.00 75 1017.8
20260503053002 40 284 0.0 1.7 0.00 0.00 0.00 75 1018.7
20260503052706 41 284 0.0 2.6 0.00 0.00 0.00 75 1017.9
20260503052144 41 284 0.9 2.6 0.00 0.00 0.00 75 1017.9
20260503051858 41 284 0.0 1.7 0.00 0.00 0.00 75 1017.9
20260503051523 40 284 0.0 0.9 0.00 0.00 0.00 75 1018.7
20260503051341 41 284 0.0 1.7 0.00 0.00 0.00 74 1017.9
20260503050821 41 284 0.0 1.7 0.00 0.00 0.00 74 1017.8
20260503050050 41 284 0.0 1.7 0.00 0.00 0.00 73 1017.9
20260503050020 41 283 0.0 1.7 0.00 0.00 0.00 73 1018.7
20260503045524 41 284 0.0 0.9 0.00 0.00 0.00 72 1017.9
20260503045014 41 284 0.0 0.9 0.00 0.00 0.00 71 1017.9
20260503044733 42 284 0.0 2.6 0.00 0.00 0.00 71 1017.8
20260503044546 41 284 0.0 1.7 0.00 0.00 0.00 71 1018.7
20260503044011 42 283 0.9 2.6 0.00 0.00 0.00 70 1017.8
20260503043511 42 283 0.9 2.6 0.00 0.00 0.00 70 1017.9
20260503043212 42 283 0.0 1.7 0.00 0.00 0.00 70 1017.9
20260503043025 41 283 0.9 2.6 0.00 0.00 0.00 70 1018.7
20260503042422 42 283 0.0 1.7 0.00 0.00 0.00 70 1018.0
20260503041855 42 283 0.0 1.7 0.00 0.00 0.00 69 1017.9
20260503041544 41 283 0.0 1.7 0.00 0.00 0.00 68 1018.7
20260503041353 41 282 0.0 1.7 0.00 0.00 0.00 68 1017.9
20260503040849 41 282 0.0 0.9 0.00 0.00 0.00 68 1017.9
20260503040352 42 282 0.0 0.0 0.00 0.00 0.00 67 1017.9
20260503040006 41 282 0.0 0.0 0.00 0.00 0.00 66 1018.7
20260503035836 42 282 0.0 0.0 0.00 0.00 0.00 66 1017.9
20260503035336 42 282 0.0 0.9 0.00 0.00 0.00 66 1017.8
20260503034833 42 282 0.0 0.9 0.00 0.00 0.00 66 1017.9
20260503034540 42 282 0.0 0.9 0.00 0.00 0.00 66 1018.6
20260503034332 42 282 0.0 0.9 0.00 0.00 0.00 66 1017.8
20260503033832 42 282 0.0 0.9 0.00 0.00 0.00 66 1017.8
20260503033329 42 282 0.0 0.9 0.00 0.00 0.00 64 1017.8
20260503033038 42 282 0.0 0.9 0.00 0.00 0.00 62 1018.6
20260503032803 42 282 0.0 0.0 0.00 0.00 0.00 61 1017.8
20260503032236 42 282 0.0 0.0 0.00 0.00 0.00 61 1017.8
20260503031731 43 282 0.0 0.0 0.00 0.00 0.00 58 1017.9
20260503031206 43 282 0.0 0.0 0.00 0.00 0.00 57 1017.9
20260503030701 43 282 0.0 0.9 0.00 0.00 0.00 57 1017.9
20260503030042 43 282 0.0 0.0 0.00 0.00 0.00 57 1018.6
20260503025633 43 282 0.0 0.9 0.00 0.00 0.00 57 1017.9
20260503025108 43 282 0.0 0.9 0.00 0.00 0.00 57 1017.9
20260503024543 43 282 0.0 0.9 0.00 0.00 0.00 57 1017.9
20260503024514 43 282 0.0 0.9 0.00 0.00 0.00 57 1018.7
20260503024014 44 282 0.0 0.9 0.00 0.00 0.00 57 1017.9
20260503023447 44 282 0.0 0.9 0.00 0.00 0.00 58 1017.9
20260503023147 44 282 0.0 1.7 0.00 0.00 0.00 58 1017.9
20260503023056 43 282 0.0 1.7 0.00 0.00 0.00 58 1018.7
20260503022352 44 282 0.0 0.9 0.00 0.00 0.00 59 1017.9
20260503021847 44 282 0.0 0.9 0.00 0.00 0.00 59 1017.9
20260503021608 44 282 0.0 1.7 0.00 0.00 0.00 59 1017.8
20260503021535 44 282 0.0 0.9 0.00 0.00 0.00 59 1018.6
20260503020821 44 282 0.9 2.6 0.00 0.00 0.00 59 1017.8